| time (UTC) | temp F | wind direction | speed knots | gust knots | rain 1hr in | rain 24hr in | rain mn in | humidity % | barometer mb |
| 20260831040711 | 76 | 168 | 0.0 | 0.0 | 0.00 | 0.00 | 0.00 | 86 | 1006.3 |
| 20260831035710 | 76 | 168 | 0.0 | 0.0 | 0.00 | 0.00 | 0.00 | 86 | 1006.6 |
| 20260831034710 | 77 | 169 | 0.0 | 0.0 | 0.00 | 0.00 | 0.00 | 85 | 1006.4 |
| 20260831033710 | 77 | 169 | 0.0 | 0.0 | 0.00 | 0.00 | 0.00 | 85 | 1006.3 |
| 20260831032711 | 77 | 169 | 0.0 | 0.0 | 0.00 | 0.00 | 0.00 | 84 | 1006.6 |
| 20260831031710 | 78 | 169 | 0.0 | 0.0 | 0.00 | 0.00 | 0.00 | 84 | 1006.6 |
| 20260831030710 | 78 | 169 | 0.0 | 0.0 | 0.00 | 0.00 | 0.00 | 83 | 1006.8 |
| 20260831025711 | 78 | 169 | 0.0 | 0.0 | 0.00 | 0.00 | 0.00 | 83 | 1006.7 |
| 20260831024711 | 79 | 169 | 0.0 | 0.9 | 0.00 | 0.00 | 0.00 | 83 | 1006.9 |
| 20260831023710 | 79 | 169 | 0.9 | 1.7 | 0.00 | 0.00 | 0.00 | 83 | 1006.5 |
| 20260831022711 | 79 | 169 | 1.7 | 2.6 | 0.00 | 0.00 | 0.00 | 82 | 1006.7 |
| 20260831021711 | 79 | 271 | 0.0 | 0.0 | 0.00 | 0.00 | 0.00 | 80 | 1006.7 |
| 20260831015711 | 81 | 271 | 0.9 | 0.9 | 0.00 | 0.00 | 0.00 | 79 | 1006.3 |
| 20260831014710 | 81 | 270 | 0.9 | 0.9 | 0.00 | 0.00 | 0.00 | 78 | 1005.9 |
| 20260831013710 | 82 | 270 | 0.9 | 1.7 | 0.00 | 0.00 | 0.00 | 78 | 1006.1 |
| 20260831012711 | 82 | 270 | 0.9 | 1.7 | 0.00 | 0.00 | 0.00 | 77 | 1006.2 |
| 20260831011710 | 83 | 270 | 0.9 | 1.7 | 0.00 | 0.00 | 0.00 | 76 | 1006.0 |
| 20260831010710 | 84 | 270 | 0.9 | 1.7 | 0.00 | 0.00 | 0.00 | 75 | 1006.0 |
| 20260831005710 | 85 | 265 | 1.7 | 2.6 | 0.00 | 0.00 | 0.00 | 73 | 1006.0 |
| 20260831004711 | 86 | 286 | 0.9 | 1.7 | 0.00 | 0.00 | 0.00 | 71 | 1005.9 |
| 20260831003711 | 86 | 215 | 0.9 | 4.3 | 0.00 | 0.00 | 0.00 | 70 | 1006.0 |
| 20260831002710 | 87 | 217 | 2.6 | 5.2 | 0.00 | 0.00 | 0.00 | 69 | 1006.0 |
| 20260831001710 | 87 | 199 | 2.6 | 6.1 | 0.00 | 0.00 | 0.00 | 68 | 1006.0 |
| 20260831000710 | 88 | 203 | 4.3 | 7.0 | 0.00 | 0.00 | 0.00 | 67 | 1005.9 |
| 20260830235711 | 88 | 205 | 4.3 | 7.8 | 0.00 | 0.00 | 0.00 | 67 | 1006.0 |
| 20260830234710 | 88 | 210 | 4.3 | 10.4 | 0.00 | 0.00 | 0.00 | 66 | 1006.1 |
| 20260830233711 | 88 | 207 | 4.3 | 7.8 | 0.00 | 0.00 | 0.00 | 66 | 1006.1 |
| 20260830232711 | 88 | 216 | 4.3 | 7.0 | 0.00 | 0.00 | 0.00 | 65 | 1006.1 |
| 20260830231711 | 89 | 206 | 4.3 | 13.0 | 0.00 | 0.00 | 0.00 | 65 | 1005.9 |
| 20260830230710 | 90 | 193 | 5.2 | 11.3 | 0.00 | 0.00 | 0.00 | 65 | 1005.9 |
| 20260830225711 | 90 | 184 | 6.1 | 12.2 | 0.00 | 0.00 | 0.00 | 64 | 1005.9 |
| 20260830224710 | 90 | 173 | 7.8 | 12.2 | 0.00 | 0.00 | 0.00 | 62 | 1005.9 |
| 20260830223710 | 90 | 217 | 6.1 | 13.0 | 0.00 | 0.00 | 0.00 | 63 | 1005.8 |
| 20260830222711 | 90 | 175 | 7.8 | 12.2 | 0.00 | 0.00 | 0.00 | 64 | 1005.3 |
| 20260830221710 | 91 | 194 | 7.8 | 13.0 | 0.00 | 0.00 | 0.00 | 62 | 1005.4 |
| 20260830220710 | 91 | 181 | 7.8 | 10.4 | 0.00 | 0.00 | 0.00 | 62 | 1005.3 |
| 20260830213711 | 92 | 213 | 5.2 | 10.4 | 0.00 | 0.00 | 0.00 | 58 | 1005.3 |
| 20260830212710 | 92 | 220 | 6.1 | 10.4 | 0.00 | 0.00 | 0.00 | 57 | 1005.3 |
| 20260830210711 | 92 | 178 | 6.1 | 10.4 | 0.00 | 0.00 | 0.00 | 57 | 1005.2 |
| 20260830205712 | 92 | 197 | 5.2 | 10.4 | 0.00 | 0.00 | 0.00 | 57 | 1005.4 |
| 20260830203711 | 91 | 182 | 5.2 | 10.4 | 0.00 | 0.00 | 0.00 | 56 | 1005.4 |
| 20260830202710 | 91 | 193 | 5.2 | 7.8 | 0.00 | 0.00 | 0.00 | 57 | 1005.4 |
| 20260830201711 | 90 | 188 | 6.1 | 10.4 | 0.00 | 0.00 | 0.00 | 57 | 1005.8 |
| 20260830200710 | 91 | 198 | 5.2 | 10.4 | 0.00 | 0.00 | 0.00 | 57 | 1005.7 |
| 20260830195711 | 91 | 219 | 2.6 | 6.1 | 0.00 | 0.00 | 0.00 | 54 | 1005.8 |
| 20260830194710 | 92 | 165 | 4.3 | 7.8 | 0.00 | 0.00 | 0.00 | 55 | 1005.6 |
| 20260830193710 | 91 | 194 | 1.7 | 7.8 | 0.00 | 0.00 | 0.00 | 59 | 1005.5 |
| 20260830192710 | 91 | 173 | 3.5 | 7.8 | 0.00 | 0.00 | 0.00 | 56 | 1005.7 |
| 20260830190710 | 89 | 213 | 4.3 | 7.0 | 0.00 | 0.00 | 0.00 | 59 | 1005.9 |
| 20260830185710 | 88 | 242 | 3.5 | 6.1 | 0.00 | 0.00 | 0.00 | 62 | 1005.7 |
| 20260830183711 | 88 | 313 | 5.2 | 7.8 | 0.00 | 0.00 | 0.00 | 61 | 1005.2 |
| 20260830182711 | 88 | 273 | 6.1 | 10.4 | 0.00 | 0.00 | 0.00 | 62 | 1005.0 |
| 20260830181711 | 87 | 294 | 3.5 | 10.4 | 0.00 | 0.00 | 0.00 | 64 | 1005.6 |
| 20260830180711 | 87 | 318 | 5.2 | 8.7 | 0.00 | 0.00 | 0.00 | 64 | 1005.7 |
| 20260830175711 | 87 | 216 | 4.3 | 10.4 | 0.00 | 0.00 | 0.00 | 59 | 1006.0 |
| 20260830174710 | 87 | 210 | 5.2 | 11.3 | 0.00 | 0.00 | 0.00 | 60 | 1006.5 |
| 20260830173711 | 87 | 199 | 7.8 | 12.2 | 0.00 | 0.00 | 0.00 | 60 | 1006.5 |
| 20260830172711 | 86 | 171 | 6.1 | 12.2 | 0.00 | 0.00 | 0.00 | 60 | 1006.5 |
| 20260830171711 | 86 | 211 | 6.1 | 10.4 | 0.00 | 0.00 | 0.00 | 60 | 1006.6 |
| 20260830170710 | 85 | 219 | 5.2 | 8.7 | 0.00 | 0.00 | 0.00 | 60 | 1006.3 |
| 20260830165711 | 85 | 214 | 6.1 | 7.8 | 0.00 | 0.00 | 0.00 | 61 | 1006.4 |
| 20260830164711 | 85 | 182 | 6.1 | 10.4 | 0.00 | 0.00 | 0.00 | 61 | 1006.2 |
| 20260830162711 | 84 | 248 | 5.2 | 8.7 | 0.00 | 0.00 | 0.00 | 62 | 1006.2 |
| 20260830161710 | 83 | 223 | 2.6 | 6.1 | 0.00 | 0.00 | 0.00 | 65 | 1006.2 |
| 20260830160711 | 82 | 222 | 2.6 | 6.1 | 0.00 | 0.00 | 0.00 | 66 | 1006.5 |
| 20260830154710 | 82 | 205 | 2.6 | 5.2 | 0.00 | 0.00 | 0.00 | 66 | 1006.1 |
| 20260830153710 | 81 | 211 | 1.7 | 7.0 | 0.00 | 0.00 | 0.00 | 68 | 1005.9 |
| 20260830151711 | 80 | 286 | 1.7 | 6.1 | 0.00 | 0.00 | 0.00 | 71 | 1006.1 |
| 20260830150711 | 79 | 319 | 1.7 | 4.3 | 0.00 | 0.00 | 0.00 | 74 | 1006.1 |
| 20260830144710 | 77 | 316 | 1.7 | 5.2 | 0.00 | 0.00 | 0.00 | 79 | 1006.2 |
| 20260830143710 | 77 | 286 | 1.7 | 4.3 | 0.00 | 0.00 | 0.00 | 77 | 1006.3 |
| 20260830141711 | 78 | 294 | 2.6 | 7.0 | 0.00 | 0.00 | 0.00 | 75 | 1006.3 |
| 20260830140710 | 78 | 315 | 5.2 | 7.8 | 0.00 | 0.00 | 0.00 | 75 | 1006.2 |
| 20260830135711 | 78 | 325 | 5.2 | 7.8 | 0.00 | 0.00 | 0.00 | 73 | 1006.4 |
| 20260830133712 | 77 | 225 | 2.6 | 7.8 | 0.00 | 0.00 | 0.00 | 69 | 1005.9 |
| 20260830132711 | 76 | 218 | 3.5 | 7.0 | 0.00 | 0.00 | 0.00 | 69 | 1005.7 |
| 20260830131711 | 76 | 190 | 2.6 | 4.3 | 0.00 | 0.00 | 0.00 | 70 | 1005.5 |
| 20260830125711 | 75 | 209 | 4.3 | 6.1 | 0.00 | 0.00 | 0.00 | 73 | 1005.4 |
| 20260830124711 | 75 | 185 | 2.6 | 6.1 | 0.00 | 0.00 | 0.00 | 74 | 1005.3 |
| 20260830122710 | 75 | 165 | 4.3 | 7.0 | 0.00 | 0.00 | 0.00 | 75 | 1005.0 |
| 20260830121710 | 75 | 171 | 2.6 | 5.2 | 0.00 | 0.00 | 0.00 | 75 | 1004.8 |
| 20260830120710 | 75 | 171 | 2.6 | 6.1 | 0.00 | 0.00 | 0.00 | 75 | 1004.7 |
| 20260830114710 | 76 | 153 | 2.6 | 6.1 | 0.00 | 0.00 | 0.00 | 75 | 1004.7 |
| 20260830113711 | 76 | 122 | 1.7 | 2.6 | 0.00 | 0.00 | 0.00 | 74 | 1004.7 |
| 20260830112710 | 76 | 92 | 1.7 | 5.2 | 0.00 | 0.00 | 0.00 | 72 | 1004.8 |
| 20260830110711 | 76 | 198 | 0.9 | 5.2 | 0.00 | 0.00 | 0.00 | 73 | 1005.1 |
| 20260830105711 | 76 | 169 | 3.5 | 11.3 | 0.00 | 0.00 | 0.00 | 73 | 1004.5 |
| 20260830103710 | 79 | 144 | 7.8 | 15.6 | 0.00 | 0.00 | 0.00 | 68 | 1004.2 |
| 20260830102711 | 80 | 152 | 10.4 | 17.4 | 0.00 | 0.00 | 0.00 | 64 | 1004.4 |
| 20260830101710 | 79 | 22 | 6.1 | 13.9 | 0.00 | 0.00 | 0.00 | 62 | 1003.8 |
| 20260830100710 | 78 | 184 | 5.2 | 8.7 | 0.00 | 0.00 | 0.00 | 66 | 1004.8 |
| 20260830095711 | 78 | 290 | 4.3 | 21.7 | 0.00 | 0.00 | 0.00 | 69 | 1005.2 |
| 20260830094710 | 76 | 207 | 10.4 | 19.1 | 0.00 | 0.00 | 0.00 | 72 | 1006.2 |
| 20260830093710 | 76 | 189 | 5.2 | 13.0 | 0.00 | 0.00 | 0.00 | 74 | 1006.9 |
| 20260830092711 | 76 | 184 | 6.1 | 10.4 | 0.00 | 0.00 | 0.00 | 73 | 1006.5 |
| 20260830091711 | 77 | 209 | 6.1 | 11.3 | 0.00 | 0.00 | 0.00 | 71 | 1006.4 |
| 20260830090710 | 77 | 192 | 6.1 | 10.4 | 0.00 | 0.00 | 0.00 | 69 | 1006.4 |
| 20260830085710 | 78 | 188 | 5.2 | 13.9 | 0.00 | 0.00 | 0.00 | 68 | 1006.0 |
| 20260830084711 | 78 | 192 | 7.8 | 17.4 | 0.00 | 0.00 | 0.00 | 67 | 1006.3 |
| 20260830083711 | 78 | 227 | 10.4 | 18.2 | 0.00 | 0.00 | 0.00 | 65 | 1006.5 |
| 20260830082710 | 78 | 209 | 12.2 | 18.2 | 0.00 | 0.00 | 0.00 | 64 | 1006.7 |
| 20260830081711 | 78 | 216 | 7.8 | 13.0 | 0.00 | 0.00 | 0.00 | 64 | 1006.3 |
| 20260830080711 | 79 | 206 | 7.8 | 13.9 | 0.00 | 0.00 | 0.00 | 63 | 1006.1 |
| 20260830075710 | 79 | 205 | 6.1 | 13.0 | 0.00 | 0.00 | 0.00 | 63 | 1006.2 |
| 20260830073711 | 79 | 189 | 7.8 | 14.8 | 0.00 | 0.00 | 0.00 | 63 | 1005.7 |
| 20260830072711 | 79 | 217 | 7.8 | 15.6 | 0.00 | 0.00 | 0.00 | 63 | 1005.7 |
| 20260830071711 | 79 | 184 | 9.6 | 15.6 | 0.00 | 0.00 | 0.00 | 64 | 1005.6 |
| 20260830070710 | 80 | 178 | 7.8 | 13.9 | 0.00 | 0.00 | 0.00 | 64 | 1005.5 |
| 20260830064711 | 80 | 202 | 10.4 | 17.4 | 0.00 | 0.00 | 0.00 | 63 | 1005.3 |
| 20260830063711 | 81 | 188 | 9.6 | 22.6 | 0.00 | 0.00 | 0.00 | 63 | 1005.2 |
| 20260830062711 | 81 | 184 | 9.6 | 18.2 | 0.00 | 0.00 | 0.00 | 64 | 1005.2 |
| 20260830061710 | 81 | 215 | 7.8 | 13.9 | 0.00 | 0.00 | 0.00 | 65 | 1005.4 |
| 20260830060710 | 81 | 187 | 8.7 | 14.8 | 0.00 | 0.00 | 0.00 | 66 | 1005.3 |
| 20260830055711 | 81 | 202 | 7.0 | 13.9 | 0.00 | 0.00 | 0.00 | 68 | 1005.3 |
| 20260830054710 | 81 | 192 | 6.1 | 10.4 | 0.00 | 0.00 | 0.00 | 70 | 1005.6 |
| 20260830053711 | 81 | 186 | 5.2 | 10.4 | 0.00 | 0.00 | 0.00 | 71 | 1005.7 |
| 20260830052710 | 81 | 136 | 4.3 | 7.0 | 0.00 | 0.00 | 0.00 | 72 | 1005.4 |
| 20260830051710 | 81 | 171 | 5.2 | 7.8 | 0.00 | 0.00 | 0.00 | 72 | 1005.4 |
| 20260830050711 | 82 | 162 | 5.2 | 10.4 | 0.00 | 0.00 | 0.00 | 73 | 1005.4 |
| 20260830045710 | 82 | 171 | 6.1 | 10.4 | 0.00 | 0.00 | 0.00 | 74 | 1005.6 |
| 20260830044710 | 82 | 168 | 5.2 | 7.8 | 0.00 | 0.00 | 0.00 | 75 | 1005.4 |
| 20260830043710 | 83 | 177 | 5.2 | 8.7 | 0.00 | 0.00 | 0.00 | 76 | 1005.7 |
| 20260830042710 | 83 | 160 | 5.2 | 7.8 | 0.00 | 0.00 | 0.00 | 77 | 1006.0 |
| 20260830041711 | 82 | 194 | 6.1 | 8.7 | 0.00 | 0.00 | 0.00 | 77 | 1005.6 |